Weather History for Point Lay, AK

Change the Weather History Date:

Wednesday, May 9, 2012

  Actual Average Record
Temperature  
Mean Temperature 9 °F -  
Max Temperature 16 °F 24 °F 37 °F (2002)
Min Temperature 3 °F 15 °F 0 °F (2011)
Degree Days  
Heating Degree Days 56    
Moisture  
Dew Point 5 °F    
Average Humidity 80    
Maximum Humidity 87    
Minimum Humidity 73    
Precipitation  
Precipitation 0.00 in - - ()
Sea Level Pressure  
Sea Level Pressure 29.71 in    
Wind  
Wind Speed 10 mph (ENE)    
Max Wind Speed 17 mph    
Max Gust Speed -    
Visibility 10 miles    
Events Snow    
Averages and records for this station are not official NWS values.
T = Trace of Precipitation, MM = Missing Value Source: NWS Daily Summary

Daily Weather History Graph

Daily Weather History Graph

Search for Another Location

Airport:

Trip Planner

Search our weather history database for the weather conditions in past years. The results will help you decide how hot, cold, wet, or windy it might be!

Date:

Astronomy

May. 09, 2012 Rise Set
Actual Time 4:31 AM AKDT 1:11 AM AKDT
Civil Twilight Sun does not rise Sun does not rise
Nautical Twilight Sun does not rise Sun does not rise
Astronomical Twilight Sun does not rise Sun does not rise
Moon No Moon Rise No Moon Set
Length of Visible Light 24h 00m
Length of Day
20h 39m
Waning Gibbous, 81% of the Moon is Illuminated
May 9
Waning Gibbous
May 12
Last Quarter
May 20
New
May 28
First Quarter
Jun 4
Full

Hourly Weather History & Observations

Time (AKDT) Temp. Windchill Dew Point Humidity Pressure Visibility Wind Dir Wind Speed Gust Speed Precip Events Conditions
12:32 AM 6.8 °F -9.3 °F 1.4 °F 79% 29.79 in 10.0 mi ENE 12.7 mph - N/A   Scattered Clouds
12:56 AM 6.1 °F -9.5 °F 2.1 °F 84% 29.80 in 10.0 mi ENE 11.5 mph - N/A   Partly Cloudy
1:56 AM 5.0 °F -14.2 °F 1.0 °F 84% 29.77 in 10.0 mi ENE 17.3 mph - N/A   Clear
2:56 AM 4.1 °F -12.7 °F 0.1 °F 84% 29.76 in 10.0 mi ENE 12.7 mph - N/A   Clear
3:07 AM 3.2 °F -13.9 °F -0.4 °F 85% 29.74 in 10.0 mi ENE 12.7 mph - N/A   Scattered Clouds
3:17 AM 3.2 °F -12.2 °F -0.4 °F 85% 29.74 in 10.0 mi ENE 10.4 mph - N/A   Mostly Cloudy
3:39 AM 3.2 °F -11.3 °F -0.4 °F 85% 29.74 in 10.0 mi NE 9.2 mph - N/A   Mostly Cloudy
3:56 AM 4.1 °F -10.2 °F 0.1 °F 84% 29.75 in 10.0 mi NE 9.2 mph - N/A   Mostly Cloudy
4:56 AM 7.2 °F -8.1 °F 4.1 °F 87% 29.74 in 10.0 mi NE 11.5 mph - N/A   Overcast
5:56 AM 8.1 °F -7.0 °F 5.0 °F 87% 29.73 in 10.0 mi NE 11.5 mph - N/A   Overcast
6:56 AM 9.1 °F -4.0 °F 5.0 °F 83% 29.72 in 10.0 mi NE 9.2 mph - N/A   Overcast
7:56 AM 9.1 °F -4.9 °F 5.0 °F 83% 29.71 in 10.0 mi NE 10.4 mph - N/A   Overcast
8:56 AM 10.0 °F -4.5 °F 5.0 °F 80% 29.71 in 10.0 mi NE 11.5 mph - 0.00 in Snow Light Snow
9:56 AM 10.0 °F -3.7 °F 6.1 °F 84% 29.71 in 10.0 mi NE 10.4 mph - 0.00 in   Overcast
10:19 AM 10.4 °F -2.4 °F 6.8 °F 85% 29.69 in 10.0 mi NE 9.2 mph - N/A   Overcast
10:56 AM 10.0 °F -2.9 °F 6.1 °F 84% 29.70 in 10.0 mi NE 9.2 mph - 0.00 in Snow Light Snow
11:56 AM 11.1 °F -0.6 °F 7.2 °F 84% 29.71 in 10.0 mi NE 8.1 mph - 0.00 in   Overcast
12:56 PM 12.2 °F 0.7 °F 6.8 °F 79% 29.69 in 10.0 mi NE 8.1 mph - N/A Snow Light Snow
1:11 PM 12.2 °F 1.7 °F 6.8 °F 79% 29.69 in 9.0 mi NE 6.9 mph - 0.00 in Snow Light Snow
1:56 PM 12.0 °F 1.5 °F 6.1 °F 77% 29.70 in 10.0 mi East 6.9 mph - 0.00 in   Overcast
2:56 PM 14.0 °F 3.9 °F 7.2 °F 74% 29.70 in 10.0 mi ESE 6.9 mph - 0.00 in Snow Light Snow
3:21 PM 14.0 °F 5.1 °F 6.8 °F 73% 29.68 in 7.0 mi ESE 5.8 mph - 0.00 in Snow Light Snow
3:56 PM 14.0 °F 3.9 °F 6.8 °F 73% 29.68 in 10.0 mi ENE 6.9 mph - N/A Snow Light Snow
4:56 PM 15.1 °F 9.4 °F 8.1 °F 74% 29.69 in 10.0 mi East 3.5 mph - 0.00 in Snow Light Snow
5:56 PM 15.1 °F 9.4 °F 8.1 °F 74% 29.69 in 9.0 mi NNE 3.5 mph - 0.00 in Snow Light Snow
6:56 PM 15.1 °F 6.4 °F 8.1 °F 74% 29.68 in 10.0 mi NNE 5.8 mph - 0.00 in   Overcast
7:56 PM 14.0 °F - 9.1 °F 81% 29.68 in 10.0 mi Calm Calm - 0.00 in Snow Light Snow
8:56 PM 15.1 °F 9.4 °F 8.1 °F 74% 29.66 in 10.0 mi SSE 3.5 mph - 0.00 in   Overcast
9:56 PM 14.0 °F 8.2 °F 8.1 °F 77% 29.65 in 10.0 mi SSE 3.5 mph - N/A   Overcast
10:56 PM 14.0 °F - 8.1 °F 77% 29.64 in 10.0 mi Calm Calm - 0.00 in   Overcast
11:56 PM 13.1 °F - 8.1 °F 80% 29.63 in 10.0 mi Calm Calm - N/A   Overcast